Regional Weather Roundup
Issued by NWS Cleveland, OH

Home | Current Version | Previous Version | Graphics & Text | Print | Product List | Glossary On
Versions: 1 2 3 4 5 6 7 8 9 10 11 12 13 14 15 16 17 18 19 20 21 22 23 24 25 26 27 28 29 30 31 32 33 34 35 36 37 38 39 40 41 42 43 44 45 46 47 48 49 50
000
ASUS41 KCLE 281112
RWRCLE
OHIO REGIONAL WEATHER ROUNDUP
NATIONAL WEATHER SERVICE WILMINGTON, OH
700 AM EDT THU JUL 28 2016

NOTE: "FAIR" INDICATES FEW OR NO CLOUDS BELOW 12,000 FEET WITH NO
SIGNIFICANT WEATHER AND/OR OBSTRUCTIONS TO VISIBILITY.

OHZ001>008-015>018-024>027-034-035-043-044-281200-
   NORTHWEST OHIO

CITY           SKY/WX    TMP DP  RH WIND       PRES   REMARKS
DEFIANCE       FAIR      70  64  81 CALM      29.91R
FINDLAY        FAIR      73  62  68 NE5       29.91R
TOLEDO EXPRESS FAIR      69  66  90 N3        29.92R
TOLEDO EXEC    FAIR      72  67  84 N3        29.92R
LIMA           FAIR      69  66  90 CALM      29.92R
$$

OHZ009>014-019>023-028>033-038-089-281200-
   NORTHEAST OHIO

CITY           SKY/WX    TMP DP  RH WIND       PRES   REMARKS
CLE-HOPKINS    MOCLDY    70  60  70 S3        29.93S
CLE-LAKEFRONT  FAIR      75  59  57 SE9       29.90R
CUY CO. ARPT   NOT AVBL
LORAIN-ELYRIA  FAIR      64  60  87 CALM      29.93R
ASHTABULA      FAIR      63  63 100 CALM      29.95R
AKRON-CANTON   MOCLDY    69  61  75 NE5       29.93S
WOOSTER        FAIR      67  63  87 CALM      29.93S
MANSFIELD      MOCLDY    72  61  68 CALM      29.94R
YOUNGSTOWN     CLOUDY    66  63  90 E7        29.93S
$$

OHZ042-051>053-060>062-070>072-077>081-281200-
  SOUTHWEST OHIO

CITY           SKY/WX    TMP DP  RH WIND       PRES   REMARKS
CINC-COVINGTON LGT RAIN  73  73 100 CALM      29.94R FOG
CINC-LUNKEN    HVY RAIN  70  32  24 CALM      29.93S
HAMILTON       RAIN      72  70  93 CALM      29.94R FOG
DAYTON         CLOUDY    74  63  68 SW9       29.94R
WRIGHT-PAT AFB MOCLDY    73  69  87 S3        29.92R
DAYTON GENERAL LGT RAIN  74  68  81 S9        29.93R
WILMINGTON     RAIN      72  71  97 S9        29.94R FOG
$$

OHZ036-037-039>041-045>050-054>059-063>069-073>076-082>088-281200-
  CENTRAL AND SOUTHEAST OHIO

CITY           SKY/WX    TMP DP  RH WIND       PRES   REMARKS
COLUMBUS       MOCLDY    76  70  82 S5        29.89R
OSU AIRPORT    MOCLDY    74  68  81 CALM      29.90R
BOLTON FIELD   LGT RAIN  73  71  96 S3        29.92R
RICKENBACK AFB RAIN      74  73  98 S10       29.91R
NEWARK         FAIR      72  69  90 CALM      29.90S
MARION         FAIR      71  64  78 N3        29.92R
LANCASTER      LGT RAIN  76  74  93 CALM      29.91R
ZANESVILLE     MOCLDY    76  71  85 SE3       29.91S
NEW PHILLY     FAIR      71  63  75 CALM      29.92S
$$



USA.gov is the U.S. government's official web portal to all federal, state and local government web resources and services.